#Datum;Uhrzeit;WR;Pac;DaySum;Status;WR;Pac;DaySum;Status;Pdc1;Udc;Temp;WR;Pac;DaySum;Status;Pdc1;Udc;Temp;WR;Pac;DaySum;Status;Pdc1;Udc;Temp;WR;Pac;DaySum;Status;Pdc1;Pdc2;Udc1;Udc2;Temp;WR;Pac;DaySum;Status;Pdc1;Pdc2;Udc1;Udc2;Temp;WR;Pac;DaySum;Status;Pdc1;Udc;Temp;WR;Pac;DaySum;Status;Pdc1;Udc;Temp;WR;Pac;DaySum;Status;Pdc1;Udc;Temp
19.03.21;23:55:00;1;368;11868;0;2;0;14927;0;0;0;0;3;0;9692;0;0;0;0;4;0;13744;0;0;0;0;5;0;0;0;0;0;0;0;0;6;0;24544;0;0;0;0;0;0;7;0;18149;0;0;0;0;8;0;18201;0;0;0;0;9;0;9991;0;0;0;0
19.03.21;23:50:00;1;336;11837;0;2;0;14927;0;0;0;0;3;0;9692;0;0;0;0;4;0;13744;0;0;0;0;5;0;0;0;0;0;0;0;0;6;0;24544;0;0;0;0;0;0;7;0;18149;0;0;0;0;8;0;18201;0;0;0;0;9;0;9991;0;0;0;0
19.03.21;23:45:00;1;497;11809;0;2;0;14927;0;0;0;0;3;0;9692;0;0;0;0;4;0;13744;0;0;0;0;5;0;0;0;0;0;0;0;0;6;0;24544;0;0;0;0;0;0;7;0;18149;0;0;0;0;8;0;18201;0;0;0;0;9;0;9991;0;0;0;0
19.03.21;23:40:00;1;894;11781;0;2;0;14927;0;0;0;0;3;0;9692;0;0;0;0;4;0;13744;0;0;0;0;5;0;0;0;0;0;0;0;0;6;0;24544;0;0;0;0;0;0;7;0;18149;0;0;0;0;8;0;18201;0;0;0;0;9;0;9991;0;0;0;0
19.03.21;23:35:00;1;504;11715;0;2;0;14927;0;0;0;0;3;0;9692;0;0;0;0;4;0;13744;0;0;0;0;5;0;0;0;0;0;0;0;0;6;0;24544;0;0;0;0;0;0;7;0;18149;0;0;0;0;8;0;18201;0;0;0;0;9;0;9991;0;0;0;0
19.03.21;23:30:00;1;483;11673;0;2;0;14927;0;0;0;0;3;0;9692;0;0;0;0;4;0;13744;0;0;0;0;5;0;0;0;0;0;0;0;0;6;0;24544;0;0;0;0;0;0;7;0;18149;0;0;0;0;8;0;18201;0;0;0;0;9;0;9991;0;0;0;0
19.03.21;23:25:00;1;541;11633;0;2;0;14927;0;0;0;0;3;0;9692;0;0;0;0;4;0;13744;0;0;0;0;5;0;0;0;0;0;0;0;0;6;0;24544;0;0;0;0;0;0;7;0;18149;0;0;0;0;8;0;18201;0;0;0;0;9;0;9991;0;0;0;0
19.03.21;23:20:00;1;598;11586;0;2;0;14927;0;0;0;0;3;0;9692;0;0;0;0;4;0;13744;0;0;0;0;5;0;0;0;0;0;0;0;0;6;0;24544;0;0;0;0;0;0;7;0;18149;0;0;0;0;8;0;18201;0;0;0;0;9;0;9991;0;0;0;0
19.03.21;23:15:00;1;591;11537;0;2;0;14927;0;0;0;0;3;0;9692;0;0;0;0;4;0;13744;0;0;0;0;5;0;0;0;0;0;0;0;0;6;0;24544;0;0;0;0;0;0;7;0;18149;0;0;0;0;8;0;18201;0;0;0;0;9;0;9991;0;0;0;0
19.03.21;23:10:00;1;506;11488;0;2;0;14927;0;0;0;0;3;0;9692;0;0;0;0;4;0;13744;0;0;0;0;5;0;0;0;0;0;0;0;0;6;0;24544;0;0;0;0;0;0;7;0;18149;0;0;0;0;8;0;18201;0;0;0;0;9;0;9991;0;0;0;0
19.03.21;23:05:00;1;510;11444;0;2;0;14927;0;0;0;0;3;0;9692;0;0;0;0;4;0;13744;0;0;0;0;5;0;0;0;0;0;0;0;0;6;0;24544;0;0;0;0;0;0;7;0;18149;0;0;0;0;8;0;18201;0;0;0;0;9;0;9991;0;0;0;0
19.03.21;23:00:00;1;480;11402;0;2;0;14927;0;0;0;0;3;0;9692;0;0;0;0;4;0;13744;0;0;0;0;5;0;0;0;0;0;0;0;0;6;0;24544;0;0;0;0;0;0;7;0;18149;0;0;0;0;8;0;18201;0;0;0;0;9;0;9991;0;0;0;0
19.03.21;22:55:00;1;535;11362;0;2;0;14927;0;0;0;0;3;0;9692;0;0;0;0;4;0;13744;0;0;0;0;5;0;0;0;0;0;0;0;0;6;0;24544;2;0;0;0;0;0;7;0;18149;0;0;0;0;8;0;18201;0;0;0;0;9;0;9991;0;0;0;0
19.03.21;22:50:00;1;485;11317;0;2;0;14927;0;0;0;0;3;0;9692;0;0;0;0;4;0;13744;0;0;0;0;5;0;0;0;0;0;0;0;0;6;0;24544;2;0;0;0;0;0;7;0;18149;0;0;0;0;8;0;18201;0;0;0;0;9;0;9991;0;0;0;0
19.03.21;22:45:00;1;506;11277;0;2;0;14927;0;0;0;0;3;0;9692;0;0;0;0;4;0;13744;0;0;0;0;5;0;0;0;0;0;0;0;0;6;0;24544;2;0;0;0;0;0;7;0;18149;0;0;0;0;8;0;18201;0;0;0;0;9;0;9991;0;0;0;0
19.03.21;22:40:00;1;527;11235;0;2;0;14927;0;0;0;0;3;0;9692;0;0;0;0;4;0;13744;0;0;0;0;5;0;0;0;0;0;0;0;0;6;0;24544;2;0;0;0;0;0;7;0;18149;0;0;0;0;8;0;18201;0;0;0;0;9;0;9991;0;0;0;0
19.03.21;22:35:00;1;532;11191;0;2;0;14927;0;0;0;0;3;0;9692;0;0;0;0;4;0;13744;0;0;0;0;5;0;0;0;0;0;0;0;0;6;0;24544;2;0;0;0;0;0;7;0;18149;0;0;0;0;8;0;18201;0;0;0;0;9;0;9991;0;0;0;0
19.03.21;22:30:00;1;556;11147;0;2;0;14927;0;0;0;0;3;0;9692;0;0;0;0;4;0;13744;0;0;0;0;5;0;0;0;0;0;0;0;0;6;0;24544;2;0;0;0;0;0;7;0;18149;0;0;0;0;8;0;18201;0;0;0;0;9;0;9991;0;0;0;0
19.03.21;22:25:00;1;599;11101;0;2;0;14927;0;0;0;0;3;0;9692;0;0;0;0;4;0;13744;0;0;0;0;5;0;0;0;0;0;0;0;0;6;0;24544;2;0;0;0;0;0;7;0;18149;0;0;0;0;8;0;18201;0;0;0;0;9;0;9991;0;0;0;0
19.03.21;22:20:00;1;489;11050;0;2;0;14927;0;0;0;0;3;0;9692;0;0;0;0;4;0;13744;0;0;0;0;5;0;0;0;0;0;0;0;0;6;0;24544;2;0;0;0;0;0;7;0;18149;0;0;0;0;8;0;18201;0;0;0;0;9;0;9991;0;0;0;0
19.03.21;22:15:00;1;479;11009;0;2;0;14927;0;0;0;0;3;0;9692;0;0;0;0;4;0;13744;0;0;0;0;5;0;0;0;0;0;0;0;0;6;0;24544;2;0;0;0;0;0;7;0;18149;0;0;0;0;8;0;18201;0;0;0;0;9;0;9991;0;0;0;0
19.03.21;22:10:00;1;988;10969;0;2;0;14927;0;0;0;0;3;0;9692;0;0;0;0;4;0;13744;0;0;0;0;5;0;0;0;0;0;0;0;0;6;0;24544;2;0;0;0;0;0;7;0;18149;0;0;0;0;8;0;18201;0;0;0;0;9;0;9991;0;0;0;0
19.03.21;22:05:00;1;642;10891;0;2;0;14927;0;0;0;0;3;0;9692;0;0;0;0;4;0;13744;0;0;0;0;5;0;0;0;0;0;0;0;0;6;0;24544;2;0;0;0;0;0;7;0;18149;0;0;0;0;8;0;18201;0;0;0;0;9;0;9991;0;0;0;0
19.03.21;22:00:00;1;545;10845;0;2;0;14927;0;0;0;0;3;0;9692;0;0;0;0;4;0;13744;0;0;0;0;5;0;0;0;0;0;0;0;0;6;0;24544;2;0;0;0;0;0;7;0;18149;0;0;0;0;8;0;18201;0;0;0;0;9;0;9991;0;0;0;0
19.03.21;21:55:00;1;570;10800;0;2;0;14927;0;0;0;0;3;0;9692;0;0;0;0;4;0;13744;0;0;0;0;5;0;0;0;0;0;0;0;0;6;0;24544;2;0;0;0;0;0;7;0;18149;0;0;0;0;8;0;18201;0;0;0;0;9;0;9991;0;0;0;0
19.03.21;21:50:00;1;485;10750;0;2;0;14927;0;0;0;0;3;0;9692;0;0;0;0;4;0;13744;0;0;0;0;5;0;0;0;0;0;0;0;0;6;0;24544;2;0;0;0;0;0;7;0;18149;0;0;0;0;8;0;18201;0;0;0;0;9;0;9991;0;0;0;0
19.03.21;21:45:00;1;514;10709;0;2;0;14927;0;0;0;0;3;0;9692;0;0;0;0;4;0;13744;0;0;0;0;5;0;0;0;0;0;0;0;0;6;0;24544;2;0;0;0;0;0;7;0;18149;0;0;0;0;8;0;18201;0;0;0;0;9;0;9991;0;0;0;0
19.03.21;21:40:00;1;523;10666;0;2;0;14927;0;0;0;0;3;0;9692;0;0;0;0;4;0;13744;0;0;0;0;5;0;0;0;0;0;0;0;0;6;0;24544;2;0;0;0;0;0;7;0;18149;0;0;0;0;8;0;18201;0;0;0;0;9;0;9991;0;0;0;0
19.03.21;21:35:00;1;553;10622;0;2;0;14927;0;0;0;0;3;0;9692;0;0;0;0;4;0;13744;0;0;0;0;5;0;0;0;0;0;0;0;0;6;0;24544;2;0;0;0;0;0;7;0;18149;0;0;0;0;8;0;18201;0;0;0;0;9;0;9991;0;0;0;0
19.03.21;21:30:00;1;593;10576;0;2;0;14927;0;0;0;0;3;0;9692;0;0;0;0;4;0;13744;0;0;0;0;5;0;0;0;0;0;0;0;0;6;0;24544;2;0;0;0;0;0;7;0;18149;0;0;0;0;8;0;18201;0;0;0;0;9;0;9991;0;0;0;0
19.03.21;21:25:00;1;603;10526;0;2;0;14927;0;0;0;0;3;0;9692;0;0;0;0;4;0;13744;0;0;0;0;5;0;0;0;0;0;0;0;0;6;0;24544;2;0;0;0;0;0;7;0;18149;0;0;0;0;8;0;18201;0;0;0;0;9;0;9991;0;0;0;0
19.03.21;21:20:00;1;593;10475;0;2;0;14927;0;0;0;0;3;0;9692;0;0;0;0;4;0;13744;0;0;0;0;5;0;0;0;0;0;0;0;0;6;0;24544;2;0;0;0;0;0;7;0;18149;0;0;0;0;8;0;18201;0;0;0;0;9;0;9991;0;0;0;0
19.03.21;21:15:00;1;550;10425;0;2;0;14927;0;0;0;0;3;0;9692;0;0;0;0;4;0;13744;0;0;0;0;5;0;0;0;0;0;0;0;0;6;0;24544;2;0;0;0;0;0;7;0;18149;0;0;0;0;8;0;18201;0;0;0;0;9;0;9991;0;0;0;0
19.03.21;21:10:00;1;466;10379;0;2;0;14927;0;0;0;0;3;0;9692;0;0;0;0;4;0;13744;0;0;0;0;5;0;0;0;0;0;0;0;0;6;0;24544;2;0;0;0;0;0;7;0;18149;0;0;0;0;8;0;18201;0;0;0;0;9;0;9991;0;0;0;0
19.03.21;21:05:00;1;440;10339;0;2;0;14927;0;0;0;0;3;0;9692;0;0;0;0;4;0;13744;0;0;0;0;5;0;0;0;0;0;0;0;0;6;0;24544;2;0;0;0;0;0;7;0;18149;0;0;0;0;8;0;18201;0;0;0;0;9;0;9991;0;0;0;0
19.03.21;21:00:00;1;456;10302;0;2;0;14927;0;0;0;0;3;0;9692;0;0;0;0;4;0;13744;0;0;0;0;5;0;0;0;0;0;0;0;0;6;0;24544;2;0;0;0;0;0;7;0;18149;0;0;0;0;8;0;18201;0;0;0;0;9;0;9991;0;0;0;0
19.03.21;20:55:00;1;487;10263;0;2;0;14927;0;0;0;0;3;0;9692;0;0;0;0;4;0;13744;0;0;0;0;5;0;0;0;0;0;0;0;0;6;0;24544;2;0;0;0;0;0;7;0;18149;0;0;0;0;8;0;18201;0;0;0;0;9;0;9991;0;0;0;0
19.03.21;20:50:00;1;511;10221;0;2;0;14927;0;0;0;0;3;0;9692;0;0;0;0;4;0;13744;0;0;0;0;5;0;0;0;0;0;0;0;0;6;0;24544;2;0;0;0;0;0;7;0;18149;0;0;0;0;8;0;18201;0;0;0;0;9;0;9991;0;0;0;0
19.03.21;20:45:00;1;536;10178;0;2;0;14927;0;0;0;0;3;0;9692;0;0;0;0;4;0;13744;0;0;0;0;5;0;0;0;0;0;0;0;0;6;0;24544;2;0;0;0;0;0;7;0;18149;0;0;0;0;8;0;18201;0;0;0;0;9;0;9991;0;0;0;0
19.03.21;20:40:00;1;506;10133;0;2;0;14927;0;0;0;0;3;0;9692;0;0;0;0;4;0;13744;0;0;0;0;5;0;0;0;0;0;0;0;0;6;0;24544;2;0;0;0;0;0;7;0;18149;0;0;0;0;8;0;18201;0;0;0;0;9;0;9991;0;0;0;0
19.03.21;20:35:00;1;437;10092;0;2;0;14927;0;0;0;0;3;0;9692;0;0;0;0;4;0;13744;0;0;0;0;5;0;0;0;0;0;0;0;0;6;0;24544;2;0;0;0;0;0;7;0;18149;0;0;0;0;8;0;18201;0;0;0;0;9;0;9991;0;0;0;0
19.03.21;20:30:00;1;415;10055;0;2;0;14927;0;0;0;0;3;0;9692;0;0;0;0;4;0;13744;0;0;0;0;5;0;0;0;0;0;0;0;0;6;0;24544;2;0;0;0;0;0;7;0;18149;0;0;0;0;8;0;18201;0;0;0;0;9;0;9991;0;0;0;0
19.03.21;20:25:00;1;463;10020;0;2;0;14927;0;0;0;0;3;0;9692;0;0;0;0;4;0;13744;0;0;0;0;5;0;0;0;0;0;0;0;0;6;0;24544;2;0;0;0;0;0;7;0;18149;0;0;0;0;8;0;18201;0;0;0;0;9;0;9991;0;0;0;0
19.03.21;20:20:00;1;462;9981;0;2;0;14927;0;0;0;0;3;0;9692;0;0;0;0;4;0;13744;0;0;0;0;5;0;0;0;0;0;0;0;0;6;0;24544;2;0;0;0;0;0;7;0;18149;0;0;0;0;8;0;18201;0;0;0;0;9;0;9991;0;0;0;0
19.03.21;20:15:00;1;541;9942;0;2;0;14927;0;0;0;0;3;0;9692;0;0;0;0;4;0;13744;0;0;0;0;5;0;0;0;0;0;0;0;0;6;0;24544;2;0;0;0;0;0;7;0;18149;0;0;0;0;8;0;18201;0;0;0;0;9;0;9991;0;0;0;0
19.03.21;20:10:00;1;593;9898;0;2;0;14927;0;0;0;0;3;0;9692;0;0;0;0;4;0;13744;0;0;0;0;5;0;0;0;0;0;0;0;0;6;0;24544;2;0;0;0;0;0;7;0;18149;0;0;0;0;8;0;18201;0;0;0;0;9;0;9991;0;0;0;0
19.03.21;20:05:00;1;921;9844;0;2;0;14927;0;0;0;0;3;0;9692;0;0;0;0;4;0;13744;0;0;0;0;5;0;0;0;0;0;0;0;0;6;0;24544;2;0;0;0;0;0;7;0;18149;0;0;0;0;8;0;18201;0;0;0;0;9;0;9991;0;0;0;0
19.03.21;20:00:00;1;1127;9780;0;2;0;14927;0;0;0;0;3;0;9692;0;0;0;0;4;0;13744;0;0;0;0;5;0;0;0;0;0;0;0;0;6;0;24544;2;0;0;0;0;0;7;0;18149;0;0;0;0;8;0;18201;0;0;0;0;9;0;9991;0;0;0;0
19.03.21;19:55:00;1;916;9694;0;2;0;14927;0;0;0;0;3;0;9692;0;0;0;0;4;0;13744;0;0;0;0;5;0;0;0;0;0;0;0;0;6;0;24544;2;0;0;0;0;0;7;0;18149;0;0;0;0;8;0;18201;0;0;0;0;9;0;9991;0;0;0;0
19.03.21;19:50:00;1;907;9619;0;2;0;14927;0;0;0;0;3;0;9692;0;0;0;0;4;0;13744;0;0;0;0;5;0;0;0;0;0;0;0;0;6;0;24544;2;0;0;0;0;0;7;0;18149;0;0;0;0;8;0;18201;0;0;0;0;9;0;9991;0;0;0;0
19.03.21;19:45:00;1;772;9544;0;2;0;14927;0;0;0;0;3;0;9692;0;0;0;0;4;0;13744;0;0;0;0;5;0;0;0;0;0;0;0;0;6;0;24544;2;0;0;0;0;0;7;0;18149;0;0;0;0;8;0;18201;0;0;0;0;9;0;9991;0;0;0;0
19.03.21;19:40:00;1;780;9479;0;2;0;14927;0;0;0;0;3;0;9692;0;0;0;0;4;0;13744;0;0;0;0;5;0;0;0;0;0;0;0;0;6;0;24544;2;0;0;0;0;0;7;0;18149;0;0;0;0;8;0;18201;0;0;0;0;9;0;9991;0;0;0;0
19.03.21;19:35:00;1;729;9412;0;2;0;14927;0;0;0;0;3;0;9692;0;0;0;0;4;0;13744;0;0;0;0;5;0;0;0;0;0;0;0;0;6;0;24544;0;0;0;0;0;0;7;0;18149;0;0;0;0;8;0;18201;0;0;0;0;9;0;9991;0;0;0;0
19.03.21;19:30:00;1;1282;9352;0;2;0;14927;0;0;0;0;3;0;9692;0;0;0;0;4;0;13744;0;0;0;0;5;0;0;0;0;0;0;0;0;6;0;24544;2;0;0;0;0;0;7;0;18149;0;0;0;0;8;0;18201;0;0;0;0;9;0;9991;0;0;0;0
19.03.21;19:25:00;1;768;9272;0;2;0;14927;0;0;0;0;3;0;9692;0;0;0;0;4;0;13744;0;0;0;0;5;0;0;0;0;0;0;0;0;6;0;24544;2;0;0;0;0;0;7;0;18149;0;0;0;0;8;0;18201;0;0;0;0;9;0;9991;0;0;0;0
19.03.21;19:20:00;1;740;9207;0;2;0;14927;0;0;0;0;3;0;9692;0;0;0;0;4;0;13744;0;0;0;0;5;0;0;0;0;0;0;0;0;6;0;24544;2;0;0;0;0;0;7;0;18149;0;0;0;0;8;0;18201;0;0;0;0;9;0;9991;0;0;0;0
19.03.21;19:15:00;1;755;9145;0;2;0;14927;0;0;0;0;3;0;9692;0;0;0;0;4;0;13744;0;0;0;0;5;0;0;0;0;0;0;0;0;6;0;24544;2;0;0;0;0;0;7;0;18149;0;0;0;0;8;0;18201;0;0;0;0;9;0;9991;0;0;0;0
19.03.21;19:10:00;1;741;9083;0;2;0;14927;0;0;0;0;3;0;9692;0;0;0;0;4;0;13744;0;0;0;0;5;0;0;0;0;0;0;0;0;6;0;24544;2;0;0;0;0;0;7;0;18149;0;0;0;0;8;0;18201;0;0;0;0;9;0;9991;0;0;0;0
19.03.21;19:05:00;1;1020;9020;0;2;0;14927;0;0;0;0;3;0;9692;0;0;0;0;4;0;13744;0;0;0;0;5;0;0;0;0;0;0;0;0;6;0;24544;2;0;0;0;0;0;7;0;18149;0;0;0;0;8;0;18201;0;0;0;0;9;0;9991;0;0;0;0
19.03.21;19:00:00;1;1907;8941;0;2;0;14927;0;0;0;0;3;0;9692;0;0;0;0;4;0;13744;0;0;0;0;5;0;0;0;0;0;0;0;0;6;0;24544;2;0;0;0;0;0;7;0;18149;0;0;0;0;8;0;18201;0;0;0;0;9;0;9991;0;0;0;0
19.03.21;18:55:00;1;854;8833;0;2;0;14927;0;0;0;0;3;0;9692;0;0;0;0;4;0;13744;0;0;0;0;5;0;0;0;0;0;0;0;0;6;0;24544;2;0;0;0;0;0;7;0;18149;0;0;0;0;8;0;18201;0;0;0;0;9;0;9991;0;0;0;0
19.03.21;18:50:00;1;1343;8762;0;2;0;14927;0;0;0;0;3;0;9692;0;0;0;0;4;0;13744;0;0;0;0;5;0;0;0;0;0;0;0;0;6;0;24544;2;0;0;0;0;0;7;0;18149;0;0;0;0;8;0;18201;0;0;0;0;9;0;9991;0;0;0;0
19.03.21;18:45:00;1;579;8673;0;2;0;14927;0;0;0;0;3;0;9692;0;0;0;0;4;0;13744;0;0;0;0;5;0;0;0;0;0;0;0;0;6;0;24544;2;0;0;0;0;0;7;0;18149;0;0;0;0;8;0;18201;0;0;0;0;9;0;9991;0;0;0;0
19.03.21;18:40:00;1;640;8624;0;2;0;14927;0;0;0;0;3;0;9692;0;0;0;0;4;0;13744;0;0;0;0;5;0;0;0;0;0;0;0;0;6;0;24544;2;0;0;0;0;0;7;0;18149;0;0;0;0;8;0;18201;0;0;0;0;9;0;9991;0;0;0;0
19.03.21;18:35:00;1;424;8570;0;2;0;14927;0;0;0;0;3;0;9692;0;0;0;0;4;0;13744;0;0;0;0;5;0;0;0;0;0;0;0;0;6;0;24544;2;0;0;0;0;0;7;0;18149;0;0;0;0;8;0;18201;0;0;0;0;9;0;9991;0;0;0;0
19.03.21;18:30:00;1;850;8535;0;2;0;14927;0;0;0;0;3;0;9692;0;0;0;0;4;0;13744;0;0;0;0;5;0;0;0;0;0;0;0;0;6;0;24544;2;0;0;0;0;0;7;0;18149;0;0;0;0;8;0;18201;0;0;0;0;9;0;9991;0;0;0;0
19.03.21;18:25:00;1;494;8493;0;2;0;14927;0;0;0;0;3;0;9692;0;0;0;0;4;0;13744;0;0;0;0;5;0;0;0;0;0;0;0;0;6;0;24544;2;0;0;0;0;0;7;0;18149;0;0;0;0;8;0;18201;0;0;0;0;9;0;9991;0;0;0;0
19.03.21;18:20:00;1;547;8452;0;2;0;14927;0;0;0;0;3;0;9692;0;0;0;0;4;0;13744;0;0;0;0;5;0;0;0;0;0;0;0;0;6;0;24544;2;0;0;0;0;0;7;0;18149;0;0;0;0;8;0;18201;0;0;0;0;9;0;9991;0;0;0;0
19.03.21;18:15:00;1;555;8407;0;2;0;14927;0;0;162;7;3;0;9692;0;0;244;13;4;0;13744;0;0;0;0;5;0;0;0;0;0;0;0;0;6;0;24544;2;0;0;0;0;0;7;0;18149;0;0;0;0;8;0;18201;0;0;0;0;9;0;9991;0;0;0;0
19.03.21;18:10:00;1;552;8361;0;2;0;14927;6;0;292;12;3;0;9692;6;0;318;15;4;0;13744;0;0;0;0;5;0;0;0;0;0;0;0;0;6;0;24544;2;0;0;0;0;0;7;0;18149;0;0;0;0;8;0;18201;0;0;0;0;9;0;9991;0;0;0;0
19.03.21;18:05:00;1;558;8316;0;2;0;14927;6;0;325;12;3;0;9692;6;0;388;15;4;0;13744;2;0;80;12;5;0;0;0;0;0;0;0;0;6;0;24544;2;4;3;347;149;20;7;0;18149;0;0;42;2;8;0;18201;0;0;83;5;9;0;9991;0;0;90;3
19.03.21;18:00:00;1;569;8268;0;2;0;14927;6;0;378;13;3;0;9692;6;2;456;16;4;0;13744;1;0;150;13;5;0;0;0;0;0;0;0;0;6;0;24544;23;2;7;564;488;24;7;0;18149;6;0;316;16;8;0;18201;6;0;322;15;9;0;9991;6;0;340;11
19.03.21;17:55:00;1;631;8219;0;2;7;14927;6;12;412;13;3;3;9692;3;11;498;16;4;2;13744;1;2;202;13;5;0;0;0;0;0;0;0;0;6;64;24543;4;36;37;479;363;25;7;0;18149;6;2;464;16;8;0;18201;6;2;465;16;9;1;9991;4;6;488;12
19.03.21;17:50:00;1;586;8168;0;2;79;14927;4;115;374;14;3;17;9692;6;29;530;16;4;33;13744;3;34;198;13;5;0;0;0;0;0;0;0;0;6;128;24538;4;71;64;479;362;26;7;51;18149;6;78;425;16;8;56;18201;4;86;416;16;9;7;9991;3;11;557;12
19.03.21;17:45:00;1;586;8119;0;2;116;14920;4;155;381;14;3;62;9690;4;103;463;17;4;61;13741;3;64;198;14;5;0;0;0;0;0;0;0;0;6;165;24526;4;91;78;479;363;26;7;83;18144;4;128;419;17;8;86;18196;4;127;446;16;9;7;9990;6;12;566;12
19.03.21;17:40:00;1;580;8071;0;2;133;14910;4;173;386;14;3;75;9685;4;113;469;17;4;80;13735;3;83;204;14;5;0;0;0;0;0;0;0;0;6;182;24512;4;96;83;479;363;26;7;112;18137;4;146;430;17;8;108;18189;4;147;454;16;9;32;9990;6;46;538;13
19.03.21;17:35:00;1;543;8024;0;2;186;14899;4;228;377;14;3;111;9678;4;150;486;17;4;138;13729;5;144;231;14;5;0;0;0;0;0;0;0;0;6;279;24497;4;133;145;484;497;26;7;175;18128;4;213;443;17;8;176;18180;4;213;429;16;9;92;9987;4;127;505;13
19.03.21;17:30:00;1;588;7978;0;2;237;14884;4;281;392;15;3;141;9669;4;182;511;17;4;185;13717;5;192;232;14;5;0;0;0;0;0;0;0;0;6;377;24473;4;198;211;580;571;26;7;227;18114;4;267;451;17;8;221;18165;4;266;451;17;9;119;9979;4;155;517;13
19.03.21;17:25:00;1;642;7929;0;2;293;14864;4;339;394;15;3;175;9657;4;218;523;17;4;229;13702;5;238;236;14;5;0;0;0;0;0;0;0;0;6;439;24441;4;202;215;601;567;26;7;294;18094;4;333;466;17;8;281;18147;4;327;483;17;9;152;9969;4;188;527;13
19.03.21;17:20:00;1;643;7876;0;2;326;14840;4;374;407;15;3;199;9643;4;241;513;17;4;261;13683;5;272;237;15;5;0;0;0;0;0;0;0;0;6;472;24404;4;217;234;591;566;26;7;314;18070;4;358;468;17;8;311;18123;4;356;477;17;9;171;9956;4;205;521;14
19.03.21;17:15:00;1;567;7824;0;2;403;14812;4;455;410;15;3;248;9626;4;297;523;18;4;321;13661;5;334;240;15;5;0;0;0;0;0;0;0;0;6;550;24364;4;268;282;593;580;26;7;398;18044;4;444;475;17;8;396;18097;4;440;458;17;9;212;9942;4;250;517;14
19.03.21;17:10:00;1;568;7776;0;2;434;14779;4;490;410;16;3;269;9606;4;317;525;18;4;357;13635;5;372;239;15;5;0;0;0;0;0;0;0;0;6;609;24318;4;316;318;602;576;26;7;454;18011;4;484;483;17;8;444;18065;4;491;481;17;9;233;9924;4;273;531;14
19.03.21;17:05:00;1;601;7728;0;2;412;14743;4;464;408;16;3;257;9583;4;304;525;18;4;339;13605;5;353;240;15;5;0;0;0;0;0;0;0;0;6;613;24267;4;310;321;599;572;26;7;460;17973;4;494;475;17;8;447;18027;4;498;473;17;9;242;9905;4;281;521;14
19.03.21;17:00:00;1;570;7677;0;2;449;14708;4;502;404;16;3;277;9562;4;327;519;18;4;364;13577;5;379;240;15;5;0;0;0;0;0;0;0;0;6;638;24216;4;323;331;594;572;26;7;435;17934;4;485;480;17;8;450;17990;4;496;483;17;9;240;9885;4;279;526;14
19.03.21;16:55:00;1;608;7629;0;2;533;14670;4;584;408;16;3;332;9538;4;381;524;18;4;455;13546;5;474;243;16;5;0;0;0;0;0;0;0;0;6;794;24161;4;404;418;606;582;26;7;551;17898;4;601;482;18;8;554;17952;4;602;483;17;9;295;9865;4;341;536;14
19.03.21;16:50:00;1;572;7578;0;2;446;14626;4;501;410;16;3;278;9511;4;324;515;18;4;391;13508;5;407;240;16;5;0;0;0;0;0;0;0;0;6;738;24094;4;372;379;598;577;26;7;527;17853;4;579;485;18;8;534;17907;4;591;489;17;9;287;9841;4;333;536;14
19.03.21;16:45:00;1;578;7528;0;2;522;14589;4;577;409;17;3;323;9487;4;373;520;19;4;429;13476;5;447;240;16;5;0;0;0;0;0;0;0;0;6;743;24033;4;375;380;600;582;26;7;516;17809;4;555;467;18;8;512;17862;4;556;473;17;9;273;9817;4;313;526;14
19.03.21;16:40:00;1;541;7480;0;2;774;14546;4;837;411;17;3;484;9461;4;537;513;19;4;667;13440;5;695;246;16;5;0;0;0;0;0;0;0;0;6;1109;23971;4;563;566;606;582;26;7;758;17766;4;817;484;18;8;758;17820;4;816;486;17;9;405;9794;4;452;532;15
19.03.21;16:35:00;1;568;7435;0;2;1131;14481;4;1208;423;18;3;688;9421;4;755;547;19;4;902;13385;5;939;249;17;5;0;0;0;0;0;0;0;0;6;1348;23876;4;678;672;616;586;26;7;949;17702;4;1015;488;18;8;957;17755;4;1015;493;18;9;504;9759;4;560;546;15
19.03.21;16:30:00;1;560;7388;0;2;1649;14388;4;1744;428;17;3;969;9364;4;1045;558;19;4;1249;13310;5;1301;253;16;5;0;0;0;0;0;0;0;0;6;1675;23761;4;860;846;628;597;26;7;1405;17623;4;1489;499;18;8;1372;17676;4;1453;499;18;9;718;9717;4;785;553;15
19.03.21;16:25:00;1;511;7342;0;2;939;14251;4;1007;417;16;3;564;9283;4;622;525;18;4;801;13206;5;834;248;16;5;0;0;0;0;0;0;0;0;6;1143;23622;4;566;565;619;589;26;7;926;17506;4;986;492;18;8;940;17562;4;1003;490;17;9;501;9657;4;556;538;14
19.03.21;16:20:00;1;594;7299;0;2;435;14160;4;488;418;16;3;275;9231;4;323;525;18;4;373;13129;5;388;242;16;5;0;0;0;0;0;0;0;0;6;664;23526;4;327;331;602;574;26;7;422;17419;4;467;492;18;8;432;17474;4;482;483;18;9;235;9611;4;276;537;14
19.03.21;16:15:00;1;670;7248;0;2;316;14124;4;364;404;16;3;196;9208;4;241;521;18;4;260;13098;5;271;237;16;5;0;0;0;0;0;0;0;0;6;523;23473;4;261;267;591;574;26;7;330;17384;4;369;479;18;8;322;17438;4;371;487;18;9;178;9592;4;213;522;14
19.03.21;16:10:00;1;626;7190;0;2;246;14098;4;289;390;17;3;147;9192;4;189;513;19;4;189;13076;5;196;230;17;5;0;0;0;0;0;0;0;0;6;402;23430;4;220;234;584;559;26;7;242;17356;4;283;462;18;8;242;17411;4;278;477;18;9;126;9577;4;162;531;15
19.03.21;16:05:00;1;642;7139;0;2;401;14077;4;450;406;17;3;245;9179;4;293;512;19;4;332;13060;5;345;236;17;5;0;0;0;0;0;0;0;0;6;631;23396;4;293;305;598;574;27;7;446;17335;4;499;483;18;8;452;17391;4;494;463;18;9;240;9566;4;280;526;15
19.03.21;16:00:00;1;632;7085;0;2;373;14045;4;423;406;18;3;230;9159;4;277;519;19;4;320;13034;5;334;236;18;5;0;0;0;0;0;0;0;0;6;647;23342;4;331;336;590;576;27;7;457;17299;4;499;471;18;8;458;17354;4;500;479;18;9;245;9547;4;285;530;15
19.03.21;15:55:00;1;686;7030;0;2;700;14013;4;761;415;18;3;435;9140;4;489;536;20;4;620;13006;5;646;243;18;5;0;0;0;0;0;0;0;0;6;1149;23287;4;586;585;608;578;27;7;845;17260;4;906;484;19;8;842;17316;4;896;487;18;9;461;9526;4;494;546;16
19.03.21;15:50:00;1;637;6973;0;2;1086;13955;4;1160;420;19;3;694;9104;4;757;534;20;4;948;12955;5;987;247;18;5;0;0;0;0;0;0;0;0;6;1553;23187;4;798;791;619;582;27;7;1250;17190;4;1316;493;19;8;1251;17246;4;1326;495;18;9;678;9487;4;742;542;16
19.03.21;15:45:00;1;591;6920;0;2;878;13865;4;946;416;19;3;557;9046;4;617;528;20;4;773;12877;5;805;243;18;5;0;0;0;0;0;0;0;0;6;1334;23060;4;686;678;613;581;27;7;1022;17087;4;1087;490;19;8;1023;17142;4;1088;492;19;9;551;9431;4;607;532;16
19.03.21;15:40:00;1;613;6872;0;2;973;13792;4;1044;417;19;3;614;9000;4;677;532;20;4;846;12812;5;881;245;19;5;0;0;0;0;0;0;0;0;6;1418;22949;4;736;721;612;584;27;7;1123;17002;4;1188;492;19;8;1124;17057;4;1189;493;19;9;601;9385;4;660;549;17
19.03.21;15:35:00;1;592;6821;0;2;1183;13710;4;1261;414;19;3;755;8948;4;824;538;20;4;1034;12741;5;1077;249;19;5;0;0;0;0;0;0;0;0;6;1647;22827;4;840;823;618;589;27;7;1343;16907;4;1422;500;19;8;1352;16962;4;1426;501;19;9;732;9334;4;796;546;17
19.03.21;15:30:00;1;601;6771;0;2;1171;13611;4;1248;419;19;3;746;8885;4;815;536;20;4;1024;12655;5;1067;249;19;5;0;0;0;0;0;0;0;0;6;1643;22689;4;839;825;618;589;27;7;1318;16795;4;1386;502;19;8;1326;16849;4;1402;502;19;9;720;9274;4;786;550;17
19.03.21;15:25:00;1;589;6722;0;2;1092;13514;4;1166;420;19;3;696;8823;4;761;536;20;4;959;12569;5;998;249;19;5;0;0;0;0;0;0;0;0;6;1564;22553;4;799;784;618;585;27;7;1213;16686;4;1288;495;19;8;1227;16739;4;1299;492;19;9;667;9214;4;728;549;17
19.03.21;15:20:00;1;658;6674;0;2;1040;13423;4;1115;419;19;3;661;8765;4;727;540;20;4;916;12490;5;955;247;19;5;0;0;0;0;0;0;0;0;6;1517;22423;4;780;767;618;588;27;7;1159;16584;4;1225;493;19;8;1165;16636;4;1241;489;19;9;635;9158;4;697;549;17
19.03.21;15:15:00;1;628;6624;0;2;1011;13336;4;1083;417;19;3;641;8710;4;709;539;20;4;893;12413;5;930;250;19;5;0;0;0;0;0;0;0;0;6;1473;22297;4;756;755;618;586;27;7;1112;16487;4;1187;486;20;8;1120;16539;4;1192;485;19;9;611;9105;4;672;546;17
19.03.21;15:10:00;1;621;6574;0;2;998;13251;4;1070;414;20;3;635;8656;4;700;535;21;4;883;12339;5;920;250;20;5;0;0;0;0;0;0;0;0;6;1447;22175;4;751;736;614;582;27;7;1125;16395;4;1194;491;20;8;1129;16446;4;1196;499;19;9;612;9054;4;674;545;17
19.03.21;15:05:00;1;1113;6518;0;2;1041;13168;4;1115;419;20;3;660;8603;4;725;540;21;4;916;12265;5;954;251;20;5;0;0;0;0;0;0;0;0;6;1500;22054;4;757;744;616;592;27;7;1185;16301;4;1251;497;20;8;1180;16352;4;1248;486;19;9;637;9003;4;701;556;17
19.03.21;15:00:00;1;1227;6422;0;2;1250;13081;4;1333;424;20;3;785;8548;4;858;555;21;4;1107;12189;5;1153;252;20;5;0;0;0;0;0;0;0;0;6;1775;21928;4;909;886;626;596;27;7;1416;16202;4;1494;504;20;8;1397;16253;4;1479;505;20;9;756;8950;4;823;559;17
19.03.21;14:55:00;1;2439;6308;0;2;1391;12975;4;1477;426;20;3;863;8482;4;938;565;21;4;1248;12095;5;1300;254;20;5;0;0;0;0;0;0;0;0;6;1982;21774;4;1010;992;639;599;27;7;1536;16082;4;1627;499;20;8;1557;16136;4;1640;501;20;9;850;8886;4;921;556;17
19.03.21;14:50:00;1;2414;6106;0;2;817;12859;4;883;422;19;3;511;8410;4;569;528;20;4;722;11990;5;752;251;20;5;0;0;0;0;0;0;0;0;6;1206;21612;4;601;597;638;606;28;7;878;15954;4;936;491;20;8;882;16004;4;943;497;20;9;481;8815;4;536;537;16
19.03.21;14:45:00;1;2412;5901;0;2;490;12793;4;546;415;20;3;301;8368;4;352;528;21;4;417;11932;5;434;244;20;5;0;0;0;0;0;0;0;0;6;755;21519;4;399;405;613;591;28;7;618;15882;4;664;487;20;8;612;15933;4;668;489;20;9;326;8776;4;373;539;17
19.03.21;14:40:00;1;2488;5701;0;2;707;12752;4;769;419;20;3;435;8343;4;492;541;21;4;601;11897;5;627;248;21;5;0;0;0;0;0;0;0;0;6;1024;21456;4;529;526;615;590;28;7;964;15830;4;1033;498;21;8;960;15882;4;1023;497;20;9;510;8748;4;567;550;17
19.03.21;14:35:00;1;1917;5510;0;2;769;12690;4;834;415;21;3;491;8305;4;549;538;21;4;687;11844;5;716;248;21;5;0;0;0;0;0;0;0;0;6;1208;21362;4;626;626;624;594;28;7;780;15748;4;834;482;21;8;795;15799;4;855;493;21;9;439;8704;4;485;544;17
19.03.21;14:30:00;1;583;5364;0;2;439;12625;4;492;409;21;3;273;8264;4;325;530;21;4;370;11786;5;385;242;22;5;0;0;0;0;0;0;0;0;6;694;21265;4;348;360;608;583;29;7;452;15682;4;496;482;22;8;456;15732;4;504;477;21;9;246;8667;4;289;535;17
19.03.21;14:25:00;1;551;5316;0;2;322;12589;4;371;405;22;3;197;8241;4;242;529;22;4;260;11756;5;271;235;23;5;0;0;0;0;0;0;0;0;6;521;21210;4;271;288;593;571;29;7;342;15645;4;384;493;22;8;345;15695;4;395;483;22;9;191;8647;4;226;529;18
19.03.21;14:20:00;1;586;5270;0;2;305;12562;4;354;398;23;3;187;8225;4;231;529;22;4;248;11734;5;258;238;24;5;0;0;0;0;0;0;0;0;6;509;21166;4;253;264;586;574;29;7;289;15616;4;343;483;23;8;302;15666;4;343;485;22;9;161;8631;4;200;540;18
19.03.21;14:15:00;1;597;5220;0;2;310;12537;4;358;404;24;3;188;8209;4;232;524;23;4;259;11713;5;270;236;25;5;0;0;0;0;0;0;0;0;6;546;21124;4;289;303;586;580;30;7;287;15592;4;335;481;24;8;300;15641;4;343;481;23;9;159;8618;4;197;528;19
19.03.21;14:10:00;1;594;5171;0;2;304;12511;4;354;400;26;3;188;8193;4;233;515;24;4;256;11692;5;267;237;26;5;0;0;0;0;0;0;0;0;6;535;21078;4;257;271;586;573;30;7;274;15568;4;320;465;25;8;277;15616;4;329;482;24;9;150;8604;4;188;530;20